Back to catalog

STARLINK-35718

AliveCommunicationsVLEO
NORAD 66894·PAYLOAD·🇺🇸 United States

Launched Dec 4, 2025 from Vandenberg Space Force Base

Loading…

Next Passes (next 24 hours)

TLE

FreshSource: CelesTrak SupGP

Epoch: Sep 14, 2026, 14:47 UTC

1 66894C 25283S   26257.61645833 -.00021121  00000+0 -62429-3 0  2572
2 66894  53.1584 225.1102 0001609  89.4935 174.8217 15.34387863    17

Track STARLINK-35718 in real time with AllMySat

Download on the App Store